Satellite-Ground Cal/Val Site Overpasses Predictions

Prediction of Satellite NPP Overpassing Cal/Val Site: Antarctic Dome C

Ground Cal/Val Site Location: Latitude: -75.10, Longitude: 123.35; Satellite-Ground Site NADIR distance within 100 km.

Table of predicted overpasses for the next 14.0 days since TLE Epoch: 3/9/2019
Interval Starting Time Ending Time Minimum Distance Time Minimum Distance (km)
1 03/09/2019 14:36:05 03/09/2019 14:36:20 03/09/2019 14:36:13 85.41
2 03/10/2019 07:37:38 03/10/2019 07:38:05 03/10/2019 07:37:52 36.41
3 03/11/2019 07:18:52 03/11/2019 07:19:12 03/11/2019 07:19:02 73.77
4 03/13/2019 15:01:06 03/13/2019 15:01:29 03/13/2019 15:01:18 58.55
5 03/14/2019 14:42:15 03/14/2019 14:42:40 03/14/2019 14:42:27 50.68
6 03/15/2019 07:43:56 03/15/2019 07:44:16 03/15/2019 07:44:06 71.31
7 03/16/2019 07:25:02 03/16/2019 07:25:29 03/16/2019 07:25:16 36.60
8 03/18/2019 15:07:28 03/18/2019 15:07:36 03/18/2019 15:07:32 96.09
9 03/19/2019 14:48:28 03/19/2019 14:48:57 03/19/2019 14:48:42 15.21


NCC Satellite Cal/Val Overpasses Prediction Service
